Probability
35 61 94 90 90 87 87 90 90 90 90 90 90 90 90 94 94 94 87 87 87 87 87 87 87 84 84 87 87 84 81 77 74 77 74 71 74 71 77 81 74 71 87
32 71 87 90 87 87 87 90 90 94 90 90 87 84 84 90 90 87 87 87 87 87 84 84 84 87 84 81 81 87 90 81 81 81 68 68 74 71 77 87 84 77 84
61 68 87 87 87 87 87 90 90 94 94 90 87 84 81 84 87 84 77 81 84 71 68 71 77 71 74 71 77 74 74 71 77 71 74 61 68 77 77 84 77 87 84
55 58 71 87 87 84 87 90 94 94 90 90 90 87 81 81 84 81 77 74 74 71 65 61 68 55 68 68 65 65 68 65 68 71 45 48 55 71 74 81 84 84 84
45 48 74 87 87 87 90 90 94 94 90 87 87 84 84 77 81 77 74 71 71 65 68 61 58 58 61 58 65 68 68 68 65 61 32 35 45 65 74 84 87 81 87
35 42 68 84 90 90 87 84 87 84 84 87 87 84 84 71 71 74 77 71 74 74 68 65 65 61 61 61 61 71 71 71 65 48 35 32 35 52 68 77 84 81 84
39 45 71 81 84 84 81 77 84 81 84 84 81 77 71 74 74 74 68 71 71 71 71 68 71 65 61 61 61 61 65 68 58 39 35 32 39 55 68 77 77 81 81
39 52 68 81 77 81 77 81 77 81 77 81 77 77 71 77 71 71 68 65 68 68 68 68 71 71 71 68 65 65 68 65 61 42 32 32 39 52 71 77 81 84 84
29 48 58 68 74 77 81 81 81 74 71 68 71 74 68 74 68 65 61 61 68 71 68 68 68 68 71 71 74 71 68 65 52 48 32 26 39 52 65 71 71 74 84
29 45 52 55 61 65 71 81 74 71 71 68 71 71 81 71 61 61 65 65 65 68 68 68 68 68 68 68 68 68 65 61 45 32 39 29 48 61 65 68 68 68 74
26 29 35 35 35 45 55 65 68 68 68 68 61 68 68 55 48 52 55 61 61 58 61 61 65 68 61 61 61 58 55 48 42 32 19 32 55 61 71 68 68 65 68
16 23 16 23 26 32 52 55 52 55 55 39 42 45 42 42 42 52 45 58 55 55 58 61 61 55 48 48 48 55 52 42 39 26 19 35 61 58 58 71 68 68 65
16 13 13 19 19 19 29 29 32 32 32 35 35 32 29 32 35 39 39 39 42 39 42 42 42 39 45 45 45 42 35 32 29 23 23 39 52 58 55 58 65 61 65
13 10 10 10 6 6 13 23 23 13 13 16 23 26 26 29 26 29 32 29 29 32 35 39 32 32 32 32 29 39 35 32 29 19 23 32 45 45 48 52 58 58 65
10 6 3 6 6 6 3 10 16 13 13 13 13 19 19 23 23 19 23 26 26 29 32 26 26 23 23 29 19 26 32 26 23 19 16 19 39 48 48 48 52 58 61
3 6 6 3 3 0 3 6 6 6 10 3 6 6 10 13 16 16 16 16 23 19 19 16 19 19 16 19 19 19 19 19 19 13 10 13 26 42 52 52 52 48 58
3 3 3 3 3 0 0 3 3 6 3 3 6 10 6 6 6 10 13 13 13 16 16 13 13 10 6 13 13 16 10 10 13 13 13 6 10 32 32 45 48 48 52
3 0 0 0 0 0 0 0 3 0 3 3 0 0 6 6 6 3 3 6 6 10 13 10 6 6 6 6 10 10 6 13 13 10 10 10 13 16 23 35 48 52 55
0 0 0 0 0 0 0 0 0 0 0 3 3 0 0 3 3 3 3 0 0 0 3 3 6 6 3 0 3 3 3 6 10 10 10 10 6 16 13 19 29 39 39
3 3 0 0 0 0 0 0 0 0 0 0 0 0 0 0 0 0 0 0 0 0 0 0 0 0 0 0 0 0 0 0 6 6 3 3 0 3 6 10 13 16 26
6 6 0 0 0 0 0 0 0 0 0 0 0 0 0 0 0 0 0 0 0 0 0 0 0 0 0 0 0 0 0 0 0 0 0 0 0 3 3 3 6 6 10
6 3 0 0 0 0 0 0 0 0 0 0 0 0 0 0 0 0 0 0 0 0 0 0 0 0 0 0 0 0 0 0 0 0 0 0 0 0 3 3 0 3 6
6 3 3 0 0 0 0 0 0 0 0 0 0 0 0 0 0 0 0 0 0 0 0 0 0 0 0 0 0 0 0 0 0 0 0 0 0 0 0 0 0 0 0
6 10 3 0 0 0 3 3 0 0 0 0 0 0 0 0 0 0 0 0 0 0 0 0 0 0 0 0 0 0 0 0 0 0 0 0 0 0 0 0 0 0 0
6 10 3 0 0 0 3 3 0 0 0 0 0 0 0 0 0 0 0 0 0 0 0 0 0 0 0 0 0 0 0 0 0 0 0 0 0 0 0 0 0 0 0
10 6 3 3 0 0 3 3 3 0 0 0 0 0 0 0 0 0 0 0 0 0 0 0 0 0 0 0 0 0 0 0 0 0 0 0 0 0 0 0 0 0 0
Height
5883 5881 5880 5879 5878 5877 5876 5875 5875 5875 5874 5873 5873 5873 5872 5872 5872 5872 5872 5872 5871 5871 5871 5871 5871 5871 5872 5872 5872 5873 5873 5873 5874 5874 5874 5875 5876 5877 5877 5878 5879 5880 5881
5882 5881 5879 5878 5877 5876 5875 5874 5874 5873 5873 5872 5872 5871 5871 5871 5870 5870 5870 5870 5870 5869 5869 5869 5869 5869 5870 5870 5870 5871 5871 5871 5872 5872 5872 5873 5874 5875 5875 5876 5877 5878 5879
5881 5880 5878 5877 5875 5874 5873 5873 5872 5872 5871 5871 5870 5870 5870 5869 5869 5868 5868 5868 5867 5867 5867 5867 5867 5867 5867 5868 5868 5868 5869 5869 5869 5869 5870 5871 5872 5872 5873 5874 5875 5876 5877
5879 5878 5877 5875 5874 5873 5872 5871 5871 5870 5870 5869 5868 5868 5868 5867 5867 5866 5866 5866 5865 5865 5865 5865 5865 5865 5865 5865 5865 5866 5866 5867 5867 5867 5868 5868 5869 5869 5870 5871 5872 5873 5874
5878 5876 5875 5873 5872 5871 5870 5870 5869 5868 5868 5867 5867 5866 5866 5865 5865 5864 5864 5864 5863 5863 5863 5863 5863 5863 5862 5862 5863 5863 5864 5864 5864 5865 5865 5865 5866 5867 5867 5868 5869 5870 5871
5876 5875 5873 5872 5870 5869 5868 5867 5867 5866 5866 5865 5864 5864 5863 5863 5862 5862 5861 5861 5860 5860 5860 5860 5860 5860 5860 5860 5860 5860 5860 5861 5861 5862 5862 5862 5863 5864 5864 5865 5866 5867 5868
5874 5872 5871 5869 5868 5867 5866 5865 5865 5864 5863 5863 5862 5861 5861 5860 5860 5859 5858 5858 5857 5857 5857 5856 5856 5857 5857 5857 5857 5857 5857 5858 5858 5858 5859 5859 5860 5861 5861 5862 5863 5864 5865
5871 5870 5868 5867 5865 5864 5863 5863 5862 5862 5861 5860 5859 5858 5858 5857 5856 5856 5855 5854 5854 5854 5853 5853 5853 5853 5854 5853 5853 5853 5854 5854 5855 5855 5855 5856 5856 5857 5858 5859 5860 5861 5862
5869 5867 5865 5864 5863 5862 5861 5860 5859 5858 5858 5857 5856 5855 5854 5853 5853 5852 5851 5851 5851 5850 5850 5850 5850 5850 5850 5850 5850 5850 5850 5850 5851 5851 5852 5852 5853 5853 5854 5855 5856 5857 5858
5866 5864 5862 5861 5859 5858 5857 5857 5856 5855 5854 5853 5852 5851 5850 5850 5849 5848 5848 5847 5847 5846 5846 5846 5846 5846 5846 5846 5846 5846 5846 5847 5847 5847 5848 5848 5849 5850 5851 5852 5853 5854 5854
5863 5861 5859 5858 5856 5855 5854 5853 5852 5851 5851 5849 5848 5847 5846 5845 5845 5844 5843 5843 5843 5842 5842 5842 5842 5842 5842 5842 5842 5842 5842 5843 5843 5843 5844 5844 5845 5846 5847 5848 5849 5850 5851
5860 5858 5856 5855 5853 5852 5850 5849 5848 5847 5846 5845 5844 5843 5842 5841 5840 5839 5839 5839 5838 5838 5837 5838 5838 5838 5838 5838 5838 5838 5838 5838 5838 5839 5839 5840 5841 5842 5843 5844 5845 5846 5847
5857 5855 5853 5851 5849 5847 5846 5845 5844 5843 5842 5840 5839 5838 5837 5835 5835 5834 5834 5834 5833 5833 5833 5833 5833 5833 5834 5833 5833 5833 5833 5834 5834 5834 5835 5836 5836 5837 5838 5839 5840 5841 5842
5854 5852 5850 5848 5846 5844 5842 5841 5840 5838 5837 5836 5834 5833 5831 5830 5829 5829 5829 5828 5828 5828 5828 5827 5828 5828 5828 5828 5828 5828 5828 5828 5829 5830 5830 5831 5832 5832 5833 5834 5836 5837 5838
5850 5848 5846 5844 5842 5840 5838 5837 5835 5834 5832 5830 5829 5828 5826 5825 5824 5823 5823 5822 5822 5822 5822 5821 5822 5822 5823 5823 5823 5823 5823 5823 5824 5824 5825 5826 5827 5827 5828 5829 5830 5832 5833
5847 5844 5842 5840 5838 5835 5833 5831 5830 5828 5826 5825 5823 5822 5820 5818 5818 5817 5817 5817 5816 5816 5816 5816 5816 5816 5816 5817 5817 5817 5817 5818 5818 5819 5820 5820 5821 5822 5822 5823 5824 5825 5827
5843 5841 5839 5836 5833 5830 5828 5826 5824 5822 5820 5819 5817 5815 5814 5812 5811 5811 5811 5811 5810 5810 5810 5809 5809 5810 5810 5810 5811 5811 5811 5812 5813 5813 5814 5815 5815 5816 5816 5817 5818 5819 5821
5839 5836 5834 5832 5829 5826 5823 5821 5819 5816 5814 5812 5811 5809 5807 5806 5805 5804 5804 5804 5803 5803 5802 5803 5803 5803 5803 5803 5804 5805 5805 5806 5807 5807 5808 5809 5809 5810 5810 5811 5812 5813 5815
5834 5832 5829 5826 5824 5821 5819 5816 5814 5811 5808 5806 5804 5802 5800 5799 5798 5797 5797 5797 5796 5796 5796 5796 5796 5796 5796 5796 5797 5798 5798 5799 5800 5801 5802 5802 5803 5803 5804 5805 5805 5806 5808
5830 5827 5824 5821 5818 5816 5813 5810 5807 5805 5802 5800 5797 5795 5794 5792 5791 5790 5790 5790 5789 5789 5789 5789 5790 5789 5789 5790 5790 5791 5791 5792 5793 5794 5795 5795 5796 5797 5797 5798 5799 5800 5801
5825 5821 5819 5816 5812 5809 5806 5804 5801 5798 5795 5793 5791 5789 5787 5786 5785 5784 5783 5783 5783 5782 5783 5783 5783 5782 5782 5783 5783 5784 5784 5785 5786 5787 5788 5789 5789 5790 5790 5791 5792 5794 5795
5821 5817 5814 5810 5806 5803 5800 5796 5793 5791 5788 5786 5783 5782 5780 5779 5778 5777 5777 5776 5776 5776 5776 5776 5775 5775 5776 5776 5776 5777 5778 5779 5780 5781 5781 5782 5783 5783 5784 5785 5786 5787 5789
5816 5812 5808 5804 5800 5797 5793 5789 5786 5783 5781 5778 5776 5775 5773 5771 5771 5770 5770 5769 5770 5769 5769 5769 5769 5769 5769 5769 5769 5770 5771 5772 5774 5775 5775 5775 5775 5776 5777 5778 5779 5780 5781
5811 5807 5803 5798 5794 5790 5785 5781 5778 5775 5772 5770 5768 5767 5765 5764 5763 5762 5762 5762 5762 5762 5762 5762 5762 5762 5762 5763 5763 5764 5764 5765 5766 5767 5768 5768 5768 5769 5769 5770 5771 5773 5774
5805 5801 5797 5792 5787 5783 5778 5774 5770 5767 5764 5762 5760 5759 5757 5757 5756 5755 5754 5754 5755 5755 5755 5755 5755 5755 5756 5756 5756 5757 5757 5758 5758 5759 5760 5761 5761 5762 5762 5763 5764 5765 5766
5800 5795 5791 5786 5781 5776 5772 5768 5764 5760 5757 5755 5753 5751 5750 5749 5748 5748 5747 5747 5748 5748 5749 5749 5749 5749 5749 5749 5750 5750 5751 5751 5751 5752 5753 5753 5754 5755 5755 5756 5756 5757 5757
Wind_Speed
11 10 10 10 10 10 9 8 9 9 10 10 10 10 10 10 9 9 9 9 9 9 10 10 10 10 10 10 10 10 10 10 11 11 11 11 11 11 11 12 12 12 12
12 11 11 11 10 10 10 9 10 10 10 10 10 10 10 10 10 10 10 10 10 10 10 10 10 10 10 11 11 11 11 11 12 13 12 12 12 12 13 13 13 14 14
12 12 12 12 11 11 11 10 11 11 11 11 11 10 10 10 10 10 10 11 11 11 11 11 11 11 11 11 11 11 11 12 12 13 13 13 13 14 14 14 14 14 14
13 14 13 13 13 12 11 11 11 12 12 12 11 11 11 11 11 11 11 11 12 11 11 12 12 12 12 11 12 12 12 13 13 14 14 14 14 15 14 14 14 14 14
14 15 15 14 13 12 12 12 12 13 13 13 12 12 12 12 12 13 12 12 12 12 12 12 12 12 12 12 12 13 13 13 14 14 15 15 15 15 15 15 15 15 15
15 15 15 14 13 12 12 13 13 14 14 14 14 14 14 14 14 14 14 13 13 13 13 13 13 13 13 13 13 14 14 14 15 15 16 16 16 16 16 16 16 16 16
17 16 16 15 14 13 13 13 13 14 15 15 15 15 15 15 15 15 15 15 15 15 15 15 14 14 14 13 13 14 15 15 16 16 17 17 16 17 17 17 17 17 17
18 17 17 16 15 14 13 13 14 14 15 16 16 16 17 17 16 16 16 16 16 16 16 15 15 15 15 15 15 15 15 16 16 16 16 17 17 17 17 17 18 18 18
19 18 18 17 17 16 15 15 15 15 15 16 16 17 18 18 17 17 17 17 17 17 16 16 15 16 16 16 16 15 15 16 16 16 17 17 17 17 17 18 18 18 18
19 18 18 18 17 17 16 16 16 16 16 16 17 17 18 19 18 18 18 18 18 18 17 17 16 16 17 17 16 16 16 16 17 17 17 17 18 18 18 18 18 19 20
20 18 18 18 18 18 18 18 17 17 17 18 18 19 20 20 20 20 19 19 19 19 19 19 18 18 18 17 17 17 17 17 17 17 18 18 18 19 19 19 19 19 20
20 19 18 18 18 18 19 19 19 19 19 19 19 20 20 21 21 21 20 20 20 19 19 19 19 18 18 18 19 19 18 18 18 17 18 19 19 19 20 20 20 20 21
21 20 19 19 19 18 19 19 20 20 20 20 21 21 21 22 22 22 22 22 22 21 21 21 20 20 20 20 20 20 20 19 19 19 19 19 19 19 20 21 21 21 21
22 21 20 20 20 20 20 20 21 21 22 22 22 23 23 23 23 23 23 22 22 23 23 22 22 22 21 21 21 21 21 21 20 20 20 21 21 21 21 21 22 22 22
22 22 21 21 21 22 22 21 22 22 22 22 23 23 24 24 23 23 23 23 23 23 24 24 24 23 22 22 22 22 22 21 21 21 21 21 21 21 22 22 22 22 23
22 22 23 23 22 23 23 22 22 22 22 23 24 24 24 24 24 25 25 25 24 24 25 26 25 25 24 23 23 23 22 22 21 22 21 22 22 22 23 23 23 23 23
22 21 22 22 22 22 22 22 23 23 23 24 24 24 25 26 26 25 25 25 25 25 26 26 26 26 24 24 24 24 23 23 22 22 22 22 22 23 23 24 24 25 24
22 22 22 21 22 22 22 24 24 25 25 25 25 25 25 26 26 25 25 25 25 25 25 25 26 26 25 25 25 25 25 24 23 23 23 23 23 23 24 25 26 26 25
23 23 23 23 24 24 23 24 25 26 26 26 26 26 26 26 25 25 25 24 25 26 26 25 25 25 25 25 25 25 25 25 24 24 24 24 24 24 24 25 26 27 27
23 23 23 24 25 25 24 25 26 26 26 26 26 26 26 25 25 24 24 24 24 25 26 25 25 25 25 25 25 25 25 25 25 25 25 24 24 24 24 25 25 26 26
23 24 24 25 26 27 26 26 27 27 26 25 26 25 25 25 25 24 23 23 23 23 24 24 24 24 23 24 24 23 24 24 24 24 25 25 25 24 24 24 24 24 25
24 24 26 27 27 27 28 28 28 27 26 26 25 25 25 25 25 24 24 24 24 24 23 24 24 23 24 24 23 23 23 24 24 24 24 24 25 24 24 24 24 25 25
25 26 28 29 29 29 29 29 28 27 27 26 25 25 24 25 26 25 25 25 25 24 23 23 23 24 24 23 23 23 23 24 25 24 25 24 24 25 25 25 25 25 25
26 26 28 29 30 31 30 29 28 27 26 25 25 25 25 25 25 25 25 24 23 23 23 23 24 24 24 24 23 23 23 24 25 25 25 25 25 25 25 26 25 25 26
26 27 29 30 31 31 30 29 27 26 26 25 25 24 24 25 25 25 25 24 23 22 21 22 23 24 24 24 24 24 23 24 24 25 25 25 25 25 25 26 26 26 27
27 28 29 30 30 30 29 27 26 25 24 24 24 23 23 23 24 23 24 23 22 22 21 22 23 23 24 24 24 24 23 23 23 24 24 25 25 25 26 26 27 27 28
Wind_Direction
348 348 344 338 337 335 336 335 334 333 331 332 332 331 330 330 327 324 321 316 313 311 307 302 300 297 295 291 287 282 278 272 269 267 264 261 258 255 254 247 242 240 235
342 342 339 334 332 331 333 331 330 329 327 327 327 325 325 325 322 318 315 311 309 305 302 299 296 293 292 288 283 278 275 273 270 268 264 261 258 255 253 249 245 243 241
339 337 333 331 328 326 328 327 326 325 325 323 322 320 318 319 317 312 309 307 305 301 298 296 294 291 287 286 284 278 273 271 270 270 267 263 258 253 253 252 248 248 245
336 332 329 326 323 321 320 320 322 322 322 321 318 316 314 315 314 312 306 303 302 298 296 294 292 290 286 284 283 279 273 270 269 269 268 265 260 256 254 252 250 248 248
331 329 328 326 322 320 318 315 316 318 317 315 314 313 310 310 311 308 304 300 299 297 295 293 290 289 287 284 282 280 277 273 270 269 267 264 261 260 257 253 250 248 249
329 327 324 324 321 317 313 313 313 312 313 313 311 309 308 307 306 305 301 297 295 293 292 291 289 287 288 284 281 280 279 276 274 270 267 265 261 259 259 255 251 251 250
324 324 322 320 315 311 310 312 312 312 310 310 309 308 308 306 303 302 301 294 292 290 289 287 287 287 288 285 282 279 278 278 274 273 268 265 263 260 257 257 253 253 253
321 320 319 317 311 305 305 308 310 311 310 308 307 307 306 304 302 299 297 292 289 288 287 288 287 286 285 285 282 280 278 278 275 273 269 266 263 261 258 257 256 254 253
321 320 317 315 311 304 305 305 305 307 306 305 303 302 301 299 298 296 294 291 289 288 288 287 286 285 283 283 282 281 280 277 276 273 271 267 265 263 261 260 259 257 255
322 319 318 315 310 307 306 304 303 304 301 299 300 299 297 296 294 293 292 288 287 285 286 285 284 283 283 282 281 280 279 278 275 273 271 269 266 264 262 262 260 259 258
322 319 318 316 311 308 308 304 302 301 299 296 296 295 294 294 293 291 289 285 283 282 283 283 281 281 281 280 280 278 277 277 274 272 269 268 267 265 263 262 260 259 259
322 321 319 316 311 307 307 306 303 299 297 294 292 292 293 292 291 290 287 284 281 282 282 282 282 279 278 277 278 277 275 275 273 270 268 266 266 265 262 261 260 260 259
319 319 316 313 311 308 307 306 302 298 295 293 290 290 291 290 288 286 284 280 280 280 280 280 280 279 278 276 276 275 273 272 270 269 266 265 264 264 262 261 261 260 259
315 315 313 309 307 307 307 304 301 298 294 292 291 290 288 288 287 283 280 277 277 278 278 278 278 277 276 275 273 272 272 270 269 268 267 265 264 264 263 262 260 259 260
311 311 312 312 306 304 304 301 299 297 294 293 291 291 289 288 287 284 280 278 278 277 276 276 276 275 274 273 272 271 270 269 268 268 265 264 265 265 264 262 260 260 260
310 311 315 314 307 302 300 298 297 295 291 291 290 289 289 289 287 283 280 277 278 278 277 276 275 274 274 272 272 270 269 269 268 266 264 263 263 263 264 263 262 261 260
311 313 314 311 306 302 302 300 296 294 292 291 290 289 289 288 287 283 279 278 279 278 277 276 274 273 271 272 270 268 267 267 267 265 263 263 263 262 263 263 262 261 259
310 310 310 310 309 306 305 302 297 296 294 294 293 291 290 289 288 284 280 280 278 279 278 276 273 272 271 271 269 266 266 266 266 265 263 263 264 264 263 261 261 260 258
313 311 309 308 309 308 306 303 299 299 295 293 293 291 289 289 289 286 283 281 279 278 276 275 273 272 270 269 267 265 265 265 265 264 263 263 265 264 264 261 259 257 256
312 309 308 308 309 309 306 305 303 302 299 295 294 293 290 288 290 288 284 283 280 278 276 275 274 273 271 268 266 265 265 265 265 264 264 265 265 265 265 261 259 257 257
312 310 310 309 309 307 305 304 302 299 296 295 294 293 291 289 288 287 284 282 280 279 277 275 275 273 272 270 268 267 265 265 266 267 266 266 266 266 264 260 258 259 257
313 311 309 309 310 309 307 305 302 299 295 294 293 292 290 287 286 286 284 280 278 278 276 274 275 273 273 273 270 269 267 265 265 267 267 267 267 265 261 258 256 257 257
313 312 310 311 311 310 308 307 304 301 296 295 293 291 287 285 284 283 282 277 275 275 273 274 273 272 272 272 269 271 268 265 265 265 265 266 266 264 261 258 256 256 256
314 314 315 315 314 313 310 307 305 302 299 296 294 290 288 285 283 284 282 278 276 274 273 273 273 270 269 270 269 270 269 266 265 266 266 264 263 263 262 260 259 258 257
315 316 317 318 317 316 313 310 306 304 301 297 295 292 289 286 284 284 282 278 277 275 274 276 275 271 269 268 269 269 268 265 265 265 264 263 262 262 261 260 260 260 260
315 316 318 319 317 316 314 312 309 306 302 298 296 293 290 287 284 282 279 276 275 274 273 275 276 275 272 269 269 268 267 266 267 266 263 263 264 264 262 261 262 262 263